This is the latest recevied weather packets stored in our database for station/object W8XLR-2. If no packets are shown the sender has not sent any weather packets the latest 10 day(s).
| Time | Temp. | Humidity | Pressure | Rain* | Wind** | Luminosity | Snow |
|---|---|---|---|---|---|---|---|
| 1777931209 | 21.67° C | 52% | 1008.4 hPa | 0 mm | - | - | - |
| 1777930609 | 21.67° C | 50% | 1008.6 hPa | 0 mm | - | - | - |
| 1777930008 | 22.78° C | 49% | 1008.4 hPa | 0 mm | - | - | - |
| 1777929409 | 22.78° C | 49% | 1008.4 hPa | 0 mm | - | - | - |
| 1777928810 | 22.22° C | 47% | 1008.3 hPa | 0 mm | - | - | - |
| 1777928208 | 22.22° C | 49% | 1008.3 hPa | 0 mm | - | - | - |
| 1777927610 | 22.22° C | 49% | 1008.3 hPa | 0 mm | - | - | - |
| 1777927009 | 22.22° C | 49% | 1008.3 hPa | 0 mm | - | - | - |
| 1777926409 | 22.22° C | 47% | 1008.6 hPa | 0 mm | - | - | - |
| 1777925808 | 22.22° C | 47% | 1008.6 hPa | 0 mm | - | - | - |
| 1777925208 | 22.78° C | 47% | 1008.8 hPa | 0 mm | - | - | - |
| 1777924609 | 22.22° C | 48% | 1008.9 hPa | 0 mm | - | - | - |
| 1777924010 | 22.22° C | 48% | 1008.9 hPa | 0 mm | - | - | - |
| 1777923408 | 21.67° C | 49% | 1009.3 hPa | 0 mm | - | - | - |
| 1777922813 | 22.22° C | 49% | 1009.2 hPa | 0 mm | - | - | - |
| 1777922212 | 22.22° C | 49% | 1009.2 hPa | 0 mm | - | - | - |
| 1777921610 | 22.22° C | 48% | 1009.3 hPa | 0 mm | - | - | - |
| 1777921010 | 21.67° C | 48% | 1009.7 hPa | 0 mm | - | - | - |
| 1777920422 | 21.67° C | 48% | 1009.7 hPa | 0 mm | - | - | - |
| 1777919810 | 22.22° C | 48% | 1009.9 hPa | 0 mm | - | - | - |
| 1777919209 | 22.22° C | 48% | 1010 hPa | 0 mm | - | - | - |
| 1777918608 | 22.22° C | 48% | 1010 hPa | 0 mm | - | - | - |
| 1777918009 | 21.11° C | 49% | 1009.9 hPa | 0 mm | - | - | - |
| 1777917408 | 21.11° C | 47% | 1010.1 hPa | 0 mm | - | - | - |
| 1777916808 | 21.11° C | 47% | 1010.1 hPa | 0 mm | - | - | - |
* Rain latest hour (hover to see other rain measurements)
** Current wind speed in m/s (hover to see current wind gust speed)